| time (UTC) | temp F | wind direction | speed knots | gust knots | rain 1hr in | rain 24hr in | rain mn in | humidity % | barometer mb |
| 20260902223010 | 96 | 278 | 0.0 | 4.3 | 0.00 | 0.00 | 0.00 | 42 | 985.8 |
| 20260902221509 | 96 | 290 | 0.9 | 7.8 | 0.00 | 0.00 | 0.00 | 43 | 985.8 |
| 20260902220008 | 96 | 206 | 3.5 | 6.1 | 0.00 | 0.00 | 0.00 | 41 | 985.8 |
| 20260902214508 | 97 | 227 | 5.2 | 7.8 | 0.00 | 0.00 | 0.00 | 41 | 985.9 |
| 20260902213006 | 97 | 185 | 2.6 | 6.1 | 0.00 | 0.00 | 0.00 | 40 | 985.9 |
| 20260902211510 | 97 | 213 | 4.3 | 5.2 | 0.00 | 0.00 | 0.00 | 40 | 985.9 |
| 20260902210003 | 97 | 229 | 3.5 | 8.7 | 0.00 | 0.00 | 0.00 | 40 | 986.1 |
| 20260902204503 | 97 | 225 | 5.2 | 7.8 | 0.00 | 0.00 | 0.00 | 40 | 986.3 |
| 20260902203043 | 96 | 184 | 3.5 | 7.0 | 0.00 | 0.00 | 0.00 | 40 | 986.5 |
| 20260902201542 | 96 | 167 | 3.5 | 7.0 | 0.00 | 0.00 | 0.00 | 41 | 986.6 |
| 20260902200030 | 96 | 133 | 1.7 | 4.3 | 0.00 | 0.00 | 0.00 | 42 | 986.9 |
| 20260902194529 | 96 | 47 | 5.2 | 9.6 | 0.00 | 0.00 | 0.00 | 42 | 987.1 |
| 20260902193025 | 97 | 76 | 0.9 | 3.5 | 0.00 | 0.00 | 0.00 | 41 | 987.3 |
| 20260902191522 | 97 | 165 | 1.7 | 10.4 | 0.00 | 0.00 | 0.00 | 40 | 987.6 |
| 20260902190031 | 97 | 248 | 2.6 | 6.1 | 0.00 | 0.00 | 0.00 | 41 | 987.8 |
| 20260902184517 | 97 | 33 | 0.0 | 2.6 | 0.00 | 0.00 | 0.00 | 42 | 988.1 |
| 20260902183015 | 98 | 320 | 0.9 | 7.0 | 0.00 | 0.00 | 0.00 | 41 | 988.3 |
| 20260902181512 | 97 | 256 | 2.6 | 7.8 | 0.00 | 0.00 | 0.00 | 42 | 988.5 |
| 20260902180052 | 96 | 228 | 1.7 | 6.1 | 0.00 | 0.00 | 0.00 | 44 | 988.9 |
| 20260902174549 | 96 | 33 | 0.9 | 4.3 | 0.00 | 0.00 | 0.00 | 44 | 989.2 |
| 20260902173037 | 96 | 245 | 3.5 | 7.8 | 0.00 | 0.00 | 0.00 | 44 | 989.4 |
| 20260902171533 | 96 | 294 | 0.9 | 7.0 | 0.00 | 0.00 | 0.00 | 44 | 989.7 |
| 20260902170006 | 94 | 233 | 1.7 | 7.8 | 0.00 | 0.00 | 0.00 | 47 | 989.9 |
| 20260902164503 | 94 | 42 | 0.9 | 7.8 | 0.00 | 0.00 | 0.00 | 47 | 990.1 |
| 20260902163042 | 93 | 277 | 2.6 | 7.0 | 0.00 | 0.00 | 0.00 | 48 | 990.2 |
| 20260902161545 | 93 | 5 | 0.9 | 3.5 | 0.00 | 0.00 | 0.00 | 49 | 990.3 |
| 20260902160024 | 91 | 28 | 3.5 | 7.0 | 0.00 | 0.00 | 0.00 | 52 | 990.3 |
| 20260902154525 | 90 | 271 | 2.6 | 6.1 | 0.00 | 0.00 | 0.00 | 53 | 990.4 |
| 20260902153021 | 88 | 44 | 0.9 | 4.3 | 0.00 | 0.00 | 0.00 | 58 | 990.4 |
| 20260902151514 | 87 | 16 | 0.9 | 4.3 | 0.00 | 0.00 | 0.00 | 62 | 990.4 |
| 20260902150009 | 86 | 355 | 0.0 | 4.3 | 0.00 | 0.00 | 0.00 | 63 | 990.5 |
| 20260902144506 | 85 | 212 | 0.0 | 4.3 | 0.00 | 0.00 | 0.00 | 65 | 990.5 |
| 20260902143002 | 83 | 135 | 0.0 | 2.6 | 0.00 | 0.00 | 0.00 | 66 | 990.6 |
| 20260902141603 | 82 | 135 | 0.9 | 3.5 | 0.00 | 0.00 | 0.00 | 67 | 990.5 |
| 20260902140038 | 82 | 138 | 0.0 | 0.0 | 0.00 | 0.00 | 0.00 | 67 | 990.6 |
| 20260902134539 | 80 | 138 | 0.0 | 0.0 | 0.00 | 0.00 | 0.00 | 66 | 990.4 |
| 20260902133028 | 78 | 138 | 0.9 | 3.5 | 0.00 | 0.00 | 0.00 | 66 | 990.4 |
| 20260902131517 | 76 | 142 | 0.0 | 0.0 | 0.00 | 0.00 | 0.00 | 62 | 990.1 |
| 20260902130016 | 75 | 142 | 0.0 | 0.0 | 0.00 | 0.00 | 0.00 | 62 | 989.9 |
| 20260902124515 | 74 | 142 | 0.0 | 0.0 | 0.00 | 0.00 | 0.00 | 62 | 989.6 |
| 20260902123013 | 74 | 142 | 0.0 | 0.0 | 0.00 | 0.00 | 0.00 | 62 | 989.5 |
| 20260902121512 | 75 | 142 | 0.0 | 0.0 | 0.00 | 0.00 | 0.00 | 63 | 989.5 |
| 20260902120010 | 75 | 142 | 0.0 | 0.0 | 0.00 | 0.00 | 0.00 | 63 | 989.5 |
| 20260902114509 | 75 | 142 | 0.0 | 0.0 | 0.00 | 0.00 | 0.00 | 64 | 989.6 |
| 20260902113110 | 76 | 142 | 0.0 | 0.0 | 0.00 | 0.00 | 0.00 | 66 | 989.4 |
| 20260902111554 | 76 | 142 | 0.0 | 0.0 | 0.00 | 0.00 | 0.00 | 65 | 989.4 |
| 20260902110055 | 76 | 142 | 0.0 | 0.0 | 0.00 | 0.00 | 0.00 | 66 | 989.4 |
| 20260902104553 | 76 | 188 | 0.0 | 0.0 | 0.00 | 0.00 | 0.00 | 67 | 989.4 |
| 20260902103050 | 77 | 193 | 0.0 | 0.0 | 0.00 | 0.00 | 0.00 | 67 | 989.3 |
| 20260902101550 | 77 | 193 | 0.0 | 0.0 | 0.00 | 0.00 | 0.00 | 67 | 989.1 |
| 20260902100049 | 77 | 193 | 0.0 | 0.0 | 0.00 | 0.00 | 0.00 | 66 | 989.2 |
| 20260902094554 | 77 | 193 | 0.0 | 0.0 | 0.00 | 0.00 | 0.00 | 66 | 989.1 |
| 20260902093047 | 77 | 193 | 0.0 | 2.6 | 0.00 | 0.00 | 0.00 | 67 | 989.1 |
| 20260902091528 | 77 | 187 | 0.0 | 0.0 | 0.00 | 0.00 | 0.00 | 68 | 989.2 |
| 20260902090025 | 78 | 146 | 0.0 | 0.0 | 0.00 | 0.00 | 0.00 | 68 | 989.3 |
| 20260902084514 | 78 | 146 | 0.0 | 0.0 | 0.00 | 0.00 | 0.00 | 69 | 989.4 |
| 20260902083006 | 78 | 146 | 0.0 | 0.0 | 0.00 | 0.00 | 0.00 | 69 | 989.5 |
| 20260902081554 | 79 | 146 | 0.0 | 0.0 | 0.00 | 0.00 | 0.00 | 69 | 989.5 |
| 20260902080048 | 79 | 146 | 0.0 | 0.0 | 0.00 | 0.00 | 0.00 | 68 | 989.6 |
| 20260902074530 | 79 | 146 | 0.0 | 0.0 | 0.00 | 0.00 | 0.00 | 68 | 989.7 |
| 20260902073029 | 80 | 146 | 0.0 | 0.0 | 0.00 | 0.00 | 0.00 | 68 | 989.9 |
| 20260902071516 | 80 | 146 | 0.0 | 0.0 | 0.00 | 0.00 | 0.00 | 67 | 990.0 |
| 20260902070016 | 81 | 146 | 0.0 | 0.0 | 0.00 | 0.00 | 0.00 | 67 | 990.0 |
| 20260902064523 | 81 | 146 | 0.0 | 0.0 | 0.00 | 0.00 | 0.00 | 67 | 989.9 |
| 20260902063017 | 81 | 146 | 0.9 | 3.5 | 0.00 | 0.00 | 0.00 | 67 | 990.0 |
| 20260902061519 | 82 | 146 | 2.6 | 4.3 | 0.00 | 0.00 | 0.00 | 67 | 990.0 |
| 20260902060014 | 82 | 136 | 2.6 | 6.1 | 0.00 | 0.00 | 0.00 | 67 | 990.1 |
| 20260902054517 | 82 | 142 | 1.7 | 6.1 | 0.00 | 0.00 | 0.00 | 66 | 989.9 |
| 20260902053013 | 83 | 148 | 1.7 | 6.1 | 0.00 | 0.00 | 0.00 | 66 | 989.8 |
| 20260902051559 | 83 | 171 | 4.3 | 6.1 | 0.00 | 0.00 | 0.00 | 66 | 989.9 |
| 20260902050053 | 83 | 154 | 2.6 | 7.0 | 0.00 | 0.00 | 0.00 | 66 | 989.8 |
| 20260902044541 | 84 | 144 | 3.5 | 7.8 | 0.00 | 0.00 | 0.00 | 65 | 989.8 |
| 20260902043103 | 84 | 143 | 3.5 | 8.7 | 0.00 | 0.00 | 0.00 | 64 | 989.8 |
| 20260902041558 | 85 | 128 | 5.2 | 11.3 | 0.00 | 0.00 | 0.00 | 63 | 989.9 |
| 20260902040040 | 85 | 136 | 6.1 | 9.6 | 0.00 | 0.00 | 0.00 | 61 | 989.8 |
| 20260902034546 | 86 | 118 | 1.7 | 5.2 | 0.00 | 0.00 | 0.00 | 57 | 989.6 |
| 20260902033041 | 87 | 136 | 3.5 | 6.1 | 0.00 | 0.00 | 0.00 | 53 | 989.3 |
| 20260902031541 | 88 | 163 | 3.5 | 6.1 | 0.00 | 0.00 | 0.00 | 52 | 989.0 |
| 20260902030037 | 88 | 161 | 4.3 | 7.0 | 0.00 | 0.00 | 0.00 | 52 | 988.8 |
| 20260902024520 | 88 | 146 | 3.5 | 7.0 | 0.00 | 0.00 | 0.00 | 53 | 988.5 |
| 20260902023020 | 89 | 142 | 2.6 | 5.2 | 0.00 | 0.00 | 0.00 | 52 | 988.3 |
| 20260902021502 | 90 | 146 | 1.7 | 4.3 | 0.00 | 0.00 | 0.00 | 52 | 988.0 |
| 20260902020001 | 90 | 149 | 2.6 | 5.2 | 0.00 | 0.00 | 0.00 | 51 | 987.8 |
| 20260902014555 | 91 | 130 | 0.9 | 4.3 | 0.00 | 0.00 | 0.00 | 48 | 987.6 |
| 20260902013055 | 92 | 134 | 2.6 | 6.1 | 0.00 | 0.00 | 0.00 | 46 | 987.5 |
| 20260902011551 | 92 | 140 | 3.5 | 6.1 | 0.00 | 0.00 | 0.00 | 45 | 987.3 |
| 20260902010052 | 93 | 131 | 2.6 | 7.8 | 0.00 | 0.00 | 0.00 | 45 | 987.3 |
| 20260902004550 | 94 | 152 | 5.2 | 9.6 | 0.00 | 0.00 | 0.00 | 44 | 987.3 |
| 20260902003123 | 95 | 118 | 3.5 | 7.8 | 0.00 | 0.00 | 0.00 | 43 | 987.4 |
| 20260902001545 | 96 | 113 | 3.5 | 11.3 | 0.00 | 0.00 | 0.00 | 41 | 987.5 |
| 20260902000045 | 96 | 103 | 5.2 | 10.4 | 0.00 | 0.00 | 0.00 | 40 | 987.4 |
| 20260901234527 | 96 | 82 | 5.2 | 8.7 | 0.00 | 0.00 | 0.00 | 40 | 987.4 |
| 20260901233027 | 97 | 90 | 1.7 | 9.6 | 0.00 | 0.00 | 0.00 | 39 | 987.4 |
| 20260901231514 | 97 | 153 | 0.9 | 10.4 | 0.00 | 0.00 | 0.00 | 39 | 987.4 |
| 20260901230016 | 97 | 82 | 5.2 | 10.4 | 0.00 | 0.00 | 0.00 | 38 | 987.4 |
| 20260901224512 | 97 | 107 | 4.3 | 10.4 | 0.00 | 0.00 | 0.00 | 39 | 987.5 |